DMSP 5D-2 F13 DEB, 40468

Orbit data source: Space-Track

DMSP 5D-2 F13 DEB, 40468 is space debris in SSO originally from a launch on Fri, 24 Mar 1995 UTC launched from the Air Force Western Test Range (AFWTR). Debris objects in space refer to the collection of defunct objects orbiting the Earth. Examples of debris include non-operational satellites, rocket bodies, and fragments generated from explosions, collisions, or faulty payload assembly.

Loading next visibility...
Identifier
40468, 1995-015BL
Orbit
SSO
Country
Flag of USUS
Related business
Manufacturer
Unknown
Mission
Spacecraft
Bus & Motor
Unknown
Mass
Unknown
Launch date (UTC)
1995-03-24 (31 years ago)
Launch vehicle
Unknown
Launch site
Air Force Western Test Range (AFWTR)
Object type
Payload
Rocket body
Debris
Shape & HBR
Unknown shape, 0.1 m
Radar Cross Section
Small (<0.1 m²)

Expand to show TLE details & history
Last TLE update: 1 day ago

TLE from 1 day ago
0 DMSP 5D-2 F13 DEB
1 40468U 95015BL  25349.05995715  .00004004  00000-0  12527-2 0  9993
2 40468  98.6430  25.0133 0008513  77.6363 282.5778 14.41233409559769
Epoch: 2025-12-15T01:26Z
TLE epoch observation values (Epoch: 2025-12-15T01:26:20.297Z)
Latitude
-0.00003°
Longitude
-80.53522°
Altitude
756.054 km
Speed
7.477 km/s
True Right ascension
01h 40m 03s
True Declination
0° 00' 00"
Sunlit
Object was in full shadow at epoch
Visualization orbit readout
Latitude
Unknown
Longitude
Unknown
Altitude
Unknown
Speed
Unknown
Apparent Right ascension
Unknown
Apparent Declination
Unknown
Sunlit
N/A
Visualization observer readout
Local Sidereal Time
05:02:44
Azimuth
Unknown
Elevation
Unknown
Doppler factor
Unknown
Orbital elements
Apogee altitude
757.623 km
Perigee altitude
745.484 km
Semi-major axis
7,129.69 km
Eccentricity
0.00085
Inclination
98.643°
RAAN
25.0133°
Arg. of periapsis
77.6363°
True anomaly
282.48257°
Mean anomaly
282.5778°
Eccentric anomaly
282.53019°
Mean motion
3.60526 °/min
Orbital period
99.85 mins
BSTAR
0.0012527
Loading maneuver chart data...
Computing Atmospheric mass density...

Documentation

Showing up to 5 results
|